Location: Luz Observatory
(34.5000°N, 117.2833°W)
Time: 10:18:10
(UTC-08:00)

Hubble Space Telescope - Visible Passes

Search period start: 19 December 2014 00:00
Search period end: 29 December 2014 00:00
Orbit: 545 x 549 km, 28.5° (Epoch: 18 December)

Date Brightness Start Highest point End Pass type
(mag) Time Alt. Az. Time Alt. Az. Time Alt. Az.
19 Dec 2.5 18:28:24 10° WSW 18:31:54 26° SSW 18:33:18 22° SSE visible
20 Dec 2.8 18:20:47 10° WSW 18:24:05 23° SSW 18:26:22 15° SSE visible
21 Dec 3.1 18:13:15 10° WSW 18:16:15 19° SSW 18:19:15 10° SSE visible
22 Dec 3.4 18:05:49 10° WSW 18:08:23 16° SSW 18:10:57 10° SSE visible
23 Dec 3.6 17:58:38 10° SW 18:00:30 13° SSW 18:02:21 10° S visible
